Home > Weather > Baghlan > Past weeks

Flag for Afghanistan Past Weather in Baghlan, Afghanistan — Yesterday and Last 2 Weeks

Now
104 °F

Passing clouds.


Feels Like: 100 °F
Forecast: 78 / 106 °F
Wind: 7 mph from West

Location: Termez Airport

Current Time: Jul 1, 2016 at 2:29:13 PM

Latest Report: Jul 1, 2016 at 1:30 PM


Visibility: N/A

Pressure: 29.53 "Hg (27.85 "Hg at 536m altitude)

Humidity: 13%

Dew Point: 45 °F

Location of BaghlanLocation

Past Weather in Baghlan — Graph

°F

Baghlan Temperature Yesterday

Maximum temperature yesterday: 104 °F (at 2:00 PM)
Minimum temperature yesterday: 72 °F (at 5:00 AM)
Average temperature yesterday: 89 °F

High & Low Weather Summary for the Past Weeks

 TemperatureHumidityPressure
High104 °F (Jun 19, 2:30 PM)68% (Jun 17, 3:30 AM)29.98 "Hg (Jun 17, 3:30 AM)
Low64 °F (Jun 23, 4:00 AM)9% (Jun 19, 2:30 PM)29.56 "Hg (Jun 30, 4:30 PM)
Average85 °F28%29.76 "Hg
* Reported Jun 16 12:30 PM — Jul 1 1:00 PM, Baghlan, Weather by CustomWeather, © 2016

Note: Actual official high and low records may vary slightly from our data, if they occured in-between our weather recording intervals... More about our weather records

Advertising

Baghlan Weather History for the Previous 24 Hours

Scroll right to see more
 ConditionsComfort  
Time TempWeatherWind HumidityBarometerVisibility
1:00 PM
Fri, Jul 1
104 °FPassing clouds.7 mph16%29.56 "HgN/A
12:30 PM102 °FPassing clouds.5 mph18%29.56 "HgN/A
12:00 PM100 °FPassing clouds.7 mph14%29.56 "HgN/A
11:30 AM99 °FPassing clouds.7 mph19%29.59 "HgN/A
11:00 AM99 °FSunny.7 mph17%29.59 "Hg10 mi
10:30 AM97 °FPassing clouds.8 mph20%29.59 "HgN/A
10:00 AM95 °FSunny.9 mph16%29.59 "Hg10 mi
9:30 AM93 °FSunny.10 mph20%29.62 "Hg10 mi
9:00 AM91 °FSunny.9 mph21%29.62 "Hg10 mi
8:30 AM88 °FSunny.7 mph25%29.62 "Hg10 mi
8:00 AM86 °FPassing clouds.7 mph33%29.62 "HgN/A
7:30 AM82 °FSunny.8 mph32%29.62 "Hg10 mi
7:00 AM81 °FSunny.5 mph37%29.62 "Hg10 mi
6:30 AM81 °FSunny.No wind30%29.62 "Hg10 mi
6:00 AM77 °FSunny.No wind39%29.62 "Hg10 mi
5:30 AM73 °FSunny.No wind44%29.59 "Hg10 mi
5:00 AM73 °FSunny.No wind33%29.59 "Hg10 mi
4:30 AM73 °FClear.3 mph33%29.59 "Hg10 mi
3:30 AM73 °FClear.8 mph33%29.56 "Hg10 mi
2:30 AM75 °FClear.2 mph39%29.56 "Hg10 mi
1:30 AM79 °FClear.5 mph26%29.56 "Hg10 mi
12:30 AM81 °FClear.6 mph26%29.56 "Hg10 mi
11:30 PM
Thu, Jun 30
82 °FClear.6 mph21%29.56 "Hg10 mi
11:00 PM84 °FClear.8 mph20%29.56 "Hg10 mi
10:30 PM86 °FClear.9 mph18%29.56 "Hg10 mi
10:00 PM86 °FClear.9 mph19%29.56 "Hg10 mi
9:30 PM86 °FClear.9 mph19%29.59 "Hg10 mi
9:00 PM84 °FClear.8 mph23%29.59 "Hg10 mi
8:30 PM82 °FClear.8 mph28%29.59 "Hg10 mi
8:00 PM84 °FClear.8 mph27%29.56 "Hg10 mi
7:30 PM86 °FClear.8 mph29%29.56 "Hg10 mi
7:00 PM90 °FSunny.6 mph31%29.56 "Hg10 mi
6:30 PM97 °FSunny.7 mph22%29.56 "Hg10 mi
6:00 PM100 °FSunny.7 mph16%29.56 "Hg10 mi
5:30 PM102 °FSunny.6 mph16%29.56 "Hg10 mi
5:00 PM102 °FSunny.8 mph15%29.56 "Hg10 mi
4:30 PM102 °FSunny.9 mph15%29.56 "Hg10 mi
4:00 PM104 °FPassing clouds.9 mph13%29.59 "HgN/A
3:30 PM104 °FPassing clouds.12 mph12%29.59 "HgN/A
3:00 PM104 °FPassing clouds.12 mph12%29.59 "HgN/A
2:30 PM104 °FPassing clouds.10 mph13%29.62 "HgN/A
2:00 PM104 °FPassing clouds.9 mph11%29.62 "HgN/A
Weather by CustomWeather, © 2016

See weather overviewHow to use our weather pages